{"data":{"norad_id":66249,"epoch":"2026-09-19T22:46:24.718944Z","epoch_age_seconds":144253,"freshness":"FRESH","line1":"1 66249U 25245R   26262.94889721 -.00016474  00000+0 -52027-3 0  9993","line2":"2 66249  53.1595 100.5010 0001216  92.4981 267.6160 15.31699790 50796","mean_motion":15.3169979,"eccentricity":0.0001216,"inclination_deg":53.1595,"raan_deg":100.501,"arg_perigee_deg":92.4981,"mean_anomaly_deg":267.616,"bstar":-0.00052027,"rev_number":5079,"period_min":94.01320085054,"perigee_km":469.90779770605,"apogee_km":471.57344474353,"semimajor_km":6848.8776212248,"source":"CELESTRAK","updated_at":"2026-09-21T09:00:35.848904Z"}}